Weather History for Hoonah, AK

Change the Weather History Date:

Monday, July 1, 2013

  Actual Average Record
Temperature  
Mean Temperature 59 °F -  
Max Temperature 63 °F 61 °F 73 °F (1998)
Min Temperature 54 °F 48 °F 42 °F (1999)
Degree Days  
Heating Degree Days 6    
Growing Degree Days 9 (Base 50)    
Moisture  
Dew Point 56 °F    
Average Humidity 93    
Maximum Humidity 100    
Minimum Humidity 77    
Precipitation  
Precipitation 0.08 in - - ()
Sea Level Pressure  
Sea Level Pressure 29.96 in    
Wind  
Wind Speed 2 mph (North)    
Max Wind Speed 8 mph    
Max Gust Speed -    
Visibility 7 miles    
Events Rain    
Averages and records for this station are not official NWS values.
T = Trace of Precipitation, MM = Missing Value Source: NWS Daily Summary

Daily Weather History Graph

Daily Weather History Graph

Search for Another Location

Airport:

Trip Planner

Search our weather history database for the weather conditions in past years. The results will help you decide how hot, cold, wet, or windy it might be!

Date:

Astronomy

Jul. 01, 2013 Rise Set
Actual Time 4:03 AM AKDT 10:07 PM AKDT
Civil Twilight 2:49 AM AKDT 11:21 PM AKDT
Nautical Twilight Sun does not rise Sun does not rise
Astronomical Twilight Sun does not rise Sun does not rise
Moon 12:35 AM AKDT (7/1) 3:41 PM AKDT (7/1)
Length of Visible Light 20h 32m
Length of Day
18h 04m
Waning Crescent, 34% of the Moon is Illuminated
Jul 1
Waning Crescent
Jul 7
New
Jul 15
First Quarter
Jul 22
Full
Jul 29
Last Quarter

Hourly Weather History & Observations

Time (AKDT) Temp. Dew Point Humidity Pressure Visibility Wind Dir Wind Speed Gust Speed Precip Events Conditions
12:56 AM 57.9 °F 54.0 °F 87% 29.98 in 10.0 mi Calm Calm - N/A   Overcast
1:56 AM 57.9 °F 54.9 °F 90% 29.96 in 10.0 mi Calm Calm - N/A   Mostly Cloudy
2:56 AM 57.9 °F 54.9 °F 90% 29.96 in 10.0 mi ESE 3.5 mph - 0.00 in   Overcast
3:41 AM 57.2 °F 55.4 °F 94% 29.96 in 5.0 mi West 4.6 mph - 0.03 in Rain Light Rain
3:56 AM 57.2 °F 57.2 °F 100% 29.95 in 6.0 mi Calm Calm - N/A Rain Light Rain
4:09 AM 57.2 °F 57.2 °F 100% 29.94 in 9.0 mi South 3.5 mph - 0.00 in Rain Light Rain
4:56 AM 56.8 °F 56.8 °F 100% 29.95 in 4.0 mi ESE 8.1 mph - 0.00 in Rain Light Rain
5:56 AM 57.9 °F 56.8 °F 96% 29.94 in 5.0 mi Calm Calm - 0.00 in Rain Light Rain
6:56 AM 57.2 °F 57.2 °F 100% 29.92 in 10.0 mi Calm Calm - N/A   Mostly Cloudy
7:08 AM 57.2 °F 57.2 °F 100% 29.92 in 10.0 mi East 3.5 mph - N/A   Mostly Cloudy
7:56 AM 57.9 °F 57.9 °F 100% 29.93 in 10.0 mi SE 3.5 mph - N/A   Overcast
8:56 AM 57.9 °F 57.9 °F 100% 29.93 in 4.0 mi East 6.9 mph - 0.02 in Rain Light Rain
9:12 AM 59.0 °F 57.2 °F 94% 29.92 in 3.0 mi Calm Calm - 0.04 in Rain Rain
9:56 AM 60.8 °F 59.0 °F 94% 29.92 in 10.0 mi Calm Calm - N/A   Mostly Cloudy
10:15 AM 60.8 °F 57.2 °F 88% 29.92 in 10.0 mi Variable 4.6 mph - 0.00 in   Mostly Cloudy
10:56 AM 63.9 °F 57.9 °F 81% 29.93 in 10.0 mi Variable 3.5 mph - 0.00 in   Mostly Cloudy
11:56 AM 61.9 °F 56.8 °F 84% 29.94 in 10.0 mi WNW 5.8 mph - 0.00 in   Mostly Cloudy
12:56 PM 62.6 °F 55.4 °F 77% 29.95 in 10.0 mi Variable 6.9 mph - N/A   Overcast
1:56 PM 61.9 °F 55.9 °F 81% 29.96 in 10.0 mi Variable 5.8 mph - 0.00 in   Overcast
2:35 PM 60.8 °F 57.2 °F 88% 29.96 in 5.0 mi Calm Calm - 0.01 in Rain Light Rain
2:56 PM 59.9 °F 57.9 °F 93% 29.96 in 10.0 mi Calm Calm - 0.01 in Rain Light Rain
3:20 PM 59.0 °F 57.2 °F 94% 29.97 in 2.5 mi ENE 3.5 mph - 0.03 in Rain Rain
3:23 PM 59.0 °F 57.2 °F 94% 29.97 in 1.2 mi Calm Calm - 0.05 in Rain Heavy Rain
3:26 PM 59.0 °F 57.2 °F 94% 29.97 in 0.8 mi Calm Calm - 0.08 in Rain Heavy Rain
3:37 PM 59.0 °F 57.2 °F 94% 29.97 in 1.0 mi Calm Calm - 0.16 in Rain Heavy Rain
3:56 PM 57.2 °F 57.2 °F 100% 29.97 in 1.8 mi Calm Calm - N/A Rain Light Rain
4:00 PM 59.0 °F 57.2 °F 94% 29.97 in 3.0 mi North 4.6 mph - 0.00 in Rain Light Rain
4:14 PM 59.0 °F 57.2 °F 94% 29.96 in 10.0 mi Calm Calm - 0.00 in   Mostly Cloudy
4:56 PM 59.9 °F 57.9 °F 93% 29.97 in 4.0 mi Calm Calm - 0.01 in Rain Light Rain
5:19 PM 57.2 °F 55.4 °F 94% 29.97 in 1.8 mi West 6.9 mph - 0.03 in Rain Rain
5:30 PM 59.0 °F 57.2 °F 94% 29.97 in 3.0 mi NW 3.5 mph - 0.04 in Rain Rain
5:56 PM 59.9 °F 56.8 °F 90% 29.98 in 10.0 mi NW 4.6 mph - 0.04 in   Mostly Cloudy
6:56 PM 59.0 °F 55.4 °F 88% 29.98 in 5.0 mi WSW 6.9 mph - N/A Rain Light Rain
7:56 PM 57.9 °F 54.0 °F 87% 29.98 in 10.0 mi Variable 4.6 mph - 0.00 in   Overcast
8:56 PM 56.8 °F 54.9 °F 93% 29.98 in 10.0 mi Calm Calm - N/A   Overcast
9:56 PM 55.4 °F 55.4 °F 100% 29.98 in 10.0 mi Calm Calm - N/A   Overcast
10:56 PM 55.9 °F 52.9 °F 89% 29.99 in 10.0 mi Calm Calm - N/A   Scattered Clouds
11:56 PM 54.9 °F 54.0 °F 97% 29.99 in 10.0 mi Calm Calm - N/A   Overcast